This is the latest recevied weather packets stored in our database for station/object EA7RX-4. If no packets are shown the sender has not sent any weather packets the latest 10 day(s).
| Time | Temp. | Humidity | Pressure | Rain* | Wind** | Luminosity | Snow |
|---|---|---|---|---|---|---|---|
| 1787407203 | 28.33° C | 33% | 1014 hPa | 0 mm | - | 215 W/m² | - |
| 1787406603 | 27.78° C | 34% | 1014.2 hPa | 0 mm | - | 922 W/m² | - |
| 1787406003 | 28.89° C | 33% | 1014.3 hPa | 0 mm | - | 434 W/m² | - |
| 1787405403 | 28.33° C | 33% | 1014.4 hPa | 0 mm | - | 253 W/m² | - |
| 1787404803 | 28.33° C | 34% | 1014.2 hPa | 0 mm | - | 233 W/m² | - |
| 1787404203 | 28.33° C | 35% | 1014.4 hPa | 0 mm | - | 953 W/m² | - |
| 1787403603 | 28.33° C | 35% | 1014.3 hPa | 0 mm | - | 978 W/m² | - |
| 1787403003 | 27.22° C | 38% | 1014.5 hPa | 0 mm | - | 494 W/m² | - |
| 1787402403 | 27.78° C | 38% | 1014.5 hPa | 0 mm | - | 325 W/m² | - |
| 1787401803 | 28.33° C | 36% | 1014.5 hPa | 0 mm | - | 999 W/m² | - |
| 1787401203 | 27.78° C | 37% | 1014.5 hPa | 0 mm | - | 987 W/m² | - |
| 1787400603 | 27.78° C | 39% | 1014.4 hPa | 0 mm | - | 969 W/m² | - |
| 1787400003 | 27.78° C | 40% | 1014.6 hPa | 0 mm | - | 248 W/m² | - |
| 1787399403 | 27.78° C | 41% | 1014.8 hPa | 0 mm | - | 987 W/m² | - |
| 1787398803 | 27.22° C | 42% | 1015 hPa | 0 mm | - | 970 W/m² | - |
| 1787398203 | 26.67° C | 43% | 1015.1 hPa | 0 mm | - | 1018 W/m² | - |
| 1787397603 | 26.11° C | 46% | 1015.1 hPa | 0 mm | - | 360 W/m² | - |
| 1787397003 | 26.67° C | 44% | 1015.3 hPa | 0 mm | - | 223 W/m² | - |
| 1787396403 | 25.56° C | 45% | 1015.5 hPa | 0 mm | - | 984 W/m² | - |
| 1787395803 | 26.11° C | 48% | 1015.4 hPa | 0 mm | - | 246 W/m² | - |
| 1787395203 | 26.11° C | 44% | 1015.6 hPa | 0 mm | - | 350 W/m² | - |
| 1787394603 | 26.11° C | 46% | 1015.6 hPa | 0 mm | - | 832 W/m² | - |
| 1787394003 | 25° C | 49% | 1015.8 hPa | 0 mm | - | 873 W/m² | - |
| 1787393403 | 25.56° C | 50% | 1015.6 hPa | 0 mm | - | 830 W/m² | - |
| 1787392803 | 25° C | 52% | 1015.7 hPa | 0 mm | - | 750 W/m² | - |
* Rain latest hour (hover to see other rain measurements)
** Current wind speed in m/s (hover to see current wind gust speed)